| time (UTC) | temp F | wind direction | speed MPH | gust MPH | rain 1hr in | rain 24hr in | rain mn in | humidity % | barometer mb |
| 20260831033821 | 83 | 60 | 1.0 | 6.0 | 0.00 | 0.04 | 0.03 | 75 | 1015.9 |
| 20260831033327 | 83 | 69 | 2.0 | 7.0 | 0.00 | 0.04 | 0.03 | 74 | 1015.9 |
| 20260831032809 | 83 | 74 | 2.0 | 5.0 | 0.00 | 0.04 | 0.03 | 74 | 1015.9 |
| 20260831032332 | 83 | 103 | 1.0 | 5.0 | 0.00 | 0.04 | 0.03 | 74 | 1015.9 |
| 20260831031818 | 83 | 106 | 0.0 | 8.0 | 0.00 | 0.04 | 0.03 | 74 | 1015.8 |
| 20260831031318 | 83 | 63 | 1.0 | 8.0 | 0.00 | 0.04 | 0.03 | 74 | 1015.8 |
| 20260831030845 | 83 | 65 | 2.0 | 5.0 | 0.00 | 0.04 | 0.03 | 74 | 1015.8 |
| 20260831030326 | 83 | 88 | 1.0 | 6.0 | 0.00 | 0.04 | 0.03 | 74 | 1015.8 |
| 20260831025833 | 83 | 100 | 1.0 | 5.0 | 0.00 | 0.04 | 0.03 | 74 | 1015.7 |
| 20260831025312 | 83 | 70 | 1.0 | 6.0 | 0.00 | 0.04 | 0.03 | 74 | 1015.7 |
| 20260831024813 | 83 | 89 | 1.0 | 6.0 | 0.00 | 0.04 | 0.03 | 73 | 1015.7 |
| 20260831024314 | 83 | 73 | 1.0 | 7.0 | 0.00 | 0.04 | 0.03 | 74 | 1015.8 |
| 20260831023822 | 83 | 49 | 1.0 | 6.0 | 0.00 | 0.04 | 0.03 | 74 | 1015.8 |
| 20260831022854 | 83 | 103 | 2.0 | 7.0 | 0.00 | 0.04 | 0.03 | 73 | 1015.5 |
| 20260831022315 | 83 | 119 | 1.0 | 8.0 | 0.00 | 0.04 | 0.03 | 73 | 1015.5 |
| 20260831021822 | 83 | 69 | 2.0 | 8.0 | 0.00 | 0.04 | 0.03 | 73 | 1015.5 |
| 20260831021310 | 83 | 90 | 2.0 | 6.0 | 0.00 | 0.04 | 0.03 | 73 | 1015.4 |
| 20260831020816 | 83 | 151 | 2.0 | 8.0 | 0.00 | 0.04 | 0.03 | 73 | 1015.4 |
| 20260831020338 | 83 | 123 | 2.0 | 7.0 | 0.00 | 0.04 | 0.03 | 73 | 1015.3 |
| 20260831015844 | 83 | 78 | 2.0 | 7.0 | 0.00 | 0.04 | 0.03 | 73 | 1015.3 |
| 20260831015350 | 84 | 87 | 2.0 | 7.0 | 0.00 | 0.04 | 0.03 | 73 | 1015.2 |
| 20260831014810 | 84 | 85 | 2.0 | 7.0 | 0.00 | 0.04 | 0.03 | 73 | 1015.1 |
| 20260831014330 | 84 | 70 | 2.0 | 7.0 | 0.00 | 0.04 | 0.03 | 73 | 1015.1 |
| 20260831013836 | 84 | 123 | 1.0 | 8.0 | 0.00 | 0.04 | 0.03 | 73 | 1015.1 |
| 20260831013322 | 84 | 75 | 3.0 | 8.0 | 0.00 | 0.04 | 0.03 | 73 | 1015.0 |
| 20260831012824 | 84 | 55 | 2.0 | 8.0 | 0.00 | 0.04 | 0.03 | 73 | 1015.0 |
| 20260831012325 | 84 | 92 | 2.0 | 3.0 | 0.00 | 0.04 | 0.03 | 73 | 1014.9 |
| 20260831011832 | 84 | 78 | 0.0 | 5.0 | 0.00 | 0.04 | 0.03 | 73 | 1014.9 |
| 20260831011312 | 84 | 68 | 0.0 | 6.0 | 0.00 | 0.04 | 0.03 | 73 | 1014.8 |
| 20260831010814 | 84 | 93 | 1.0 | 9.0 | 0.00 | 0.04 | 0.03 | 72 | 1014.7 |
| 20260831010314 | 84 | 90 | 0.0 | 9.0 | 0.00 | 0.04 | 0.03 | 72 | 1014.8 |
| 20260831005325 | 84 | 97 | 1.0 | 4.0 | 0.00 | 0.04 | 0.03 | 71 | 1014.5 |
| 20260831004832 | 84 | 71 | 0.0 | 7.0 | 0.00 | 0.04 | 0.03 | 71 | 1014.5 |
| 20260831004312 | 84 | 84 | 2.0 | 9.0 | 0.00 | 0.04 | 0.03 | 70 | 1014.6 |
| 20260831003813 | 85 | 78 | 2.0 | 9.0 | 0.00 | 0.04 | 0.03 | 70 | 1014.5 |
| 20260831003313 | 85 | 70 | 1.0 | 7.0 | 0.00 | 0.04 | 0.03 | 69 | 1014.4 |
| 20260831002821 | 85 | 74 | 1.0 | 11.0 | 0.00 | 0.04 | 0.03 | 69 | 1014.5 |
| 20260831002342 | 85 | 92 | 3.0 | 11.0 | 0.00 | 0.04 | 0.03 | 68 | 1014.5 |
| 20260831001834 | 85 | 77 | 0.0 | 7.0 | 0.00 | 0.04 | 0.03 | 69 | 1014.5 |
| 20260831001321 | 85 | 69 | 3.0 | 9.0 | 0.00 | 0.04 | 0.03 | 69 | 1014.6 |
| 20260831000822 | 86 | 74 | 4.0 | 9.0 | 0.00 | 0.04 | 0.03 | 68 | 1014.5 |
| 20260831000349 | 86 | 70 | 1.0 | 7.0 | 0.01 | 0.04 | 0.03 | 68 | 1014.6 |
| 20260830235815 | 86 | 73 | 1.0 | 9.0 | 0.01 | 0.04 | 0.03 | 68 | 1014.5 |
| 20260830235348 | 86 | 87 | 3.0 | 9.0 | 0.01 | 0.04 | 0.03 | 67 | 1014.5 |
| 20260830234828 | 86 | 161 | 2.0 | 9.0 | 0.01 | 0.04 | 0.03 | 67 | 1014.6 |
| 20260830234329 | 87 | 34 | 3.0 | 9.0 | 0.01 | 0.04 | 0.03 | 66 | 1014.5 |
| 20260830233836 | 87 | 84 | 2.0 | 8.0 | 0.01 | 0.04 | 0.03 | 67 | 1014.5 |
| 20260830233316 | 87 | 36 | 1.0 | 5.0 | 0.01 | 0.04 | 0.03 | 67 | 1014.4 |
| 20260830232818 | 87 | 54 | 2.0 | 9.0 | 0.01 | 0.04 | 0.03 | 67 | 1014.3 |
| 20260830232326 | 87 | 106 | 2.0 | 10.0 | 0.01 | 0.04 | 0.03 | 66 | 1014.4 |
| 20260830231827 | 88 | 104 | 2.0 | 10.0 | 0.01 | 0.05 | 0.03 | 66 | 1014.4 |
| 20260830231341 | 88 | 74 | 2.0 | 8.0 | 0.01 | 0.05 | 0.03 | 66 | 1014.4 |
| 20260830230821 | 88 | 88 | 1.0 | 6.0 | 0.01 | 0.05 | 0.03 | 66 | 1014.5 |
| 20260830230348 | 88 | 111 | 3.0 | 10.0 | 0.00 | 0.04 | 0.02 | 66 | 1014.6 |
| 20260830225829 | 88 | 107 | 3.0 | 10.0 | 0.00 | 0.04 | 0.02 | 66 | 1014.6 |
| 20260830225355 | 88 | 61 | 1.0 | 10.0 | 0.00 | 0.04 | 0.02 | 66 | 1014.5 |
| 20260830224816 | 88 | 153 | 2.0 | 10.0 | 0.00 | 0.04 | 0.02 | 65 | 1014.5 |
| 20260830224351 | 88 | 73 | 4.0 | 9.0 | 0.00 | 0.04 | 0.02 | 65 | 1014.6 |
| 20260830223829 | 88 | 120 | 4.0 | 9.0 | 0.00 | 0.04 | 0.02 | 65 | 1014.5 |
| 20260830223310 | 88 | 131 | 2.0 | 7.0 | 0.00 | 0.04 | 0.02 | 64 | 1014.5 |
| 20260830222812 | 88 | 162 | 2.0 | 9.0 | 0.00 | 0.04 | 0.02 | 64 | 1014.6 |
| 20260830222319 | 88 | 79 | 2.0 | 11.0 | 0.00 | 0.04 | 0.02 | 65 | 1014.5 |
| 20260830221819 | 88 | 81 | 4.0 | 11.0 | 0.00 | 0.04 | 0.02 | 64 | 1014.5 |
| 20260830221320 | 88 | 68 | 4.0 | 9.0 | 0.00 | 0.04 | 0.02 | 65 | 1014.7 |
| 20260830220829 | 88 | 122 | 1.0 | 9.0 | 0.00 | 0.04 | 0.02 | 65 | 1014.7 |
| 20260830220329 | 88 | 85 | 4.0 | 9.0 | 0.00 | 0.04 | 0.02 | 64 | 1014.7 |
| 20260830215810 | 88 | 64 | 2.0 | 10.0 | 0.00 | 0.04 | 0.02 | 64 | 1014.8 |
| 20260830215316 | 88 | 74 | 4.0 | 10.0 | 0.00 | 0.04 | 0.02 | 63 | 1014.7 |
| 20260830214823 | 88 | 5 | 1.0 | 8.0 | 0.00 | 0.04 | 0.02 | 65 | 1014.8 |
| 20260830214323 | 88 | 177 | 3.0 | 9.0 | 0.00 | 0.04 | 0.02 | 65 | 1014.8 |
| 20260830213831 | 88 | 74 | 2.0 | 9.0 | 0.00 | 0.04 | 0.02 | 65 | 1014.8 |
| 20260830213312 | 88 | 80 | 4.0 | 8.0 | 0.00 | 0.04 | 0.02 | 63 | 1014.9 |
| 20260830212833 | 89 | 72 | 4.0 | 9.0 | 0.00 | 0.04 | 0.02 | 63 | 1014.8 |
| 20260830212318 | 88 | 150 | 2.0 | 8.0 | 0.00 | 0.04 | 0.02 | 63 | 1014.9 |
| 20260830211821 | 88 | 70 | 3.0 | 11.0 | 0.00 | 0.04 | 0.02 | 64 | 1014.8 |
| 20260830211328 | 88 | 82 | 5.0 | 10.0 | 0.00 | 0.04 | 0.02 | 63 | 1014.8 |
| 20260830210814 | 89 | 184 | 3.0 | 9.0 | 0.00 | 0.04 | 0.02 | 62 | 1014.8 |
| 20260830210322 | 89 | 173 | 3.0 | 9.0 | 0.00 | 0.04 | 0.02 | 62 | 1014.9 |
| 20260830205829 | 89 | 22 | 4.0 | 9.0 | 0.00 | 0.04 | 0.02 | 63 | 1014.9 |
| 20260830205316 | 89 | 157 | 5.0 | 9.0 | 0.00 | 0.04 | 0.02 | 65 | 1014.9 |
| 20260830204823 | 89 | 47 | 4.0 | 9.0 | 0.00 | 0.04 | 0.02 | 65 | 1014.8 |
| 20260830204324 | 89 | 84 | 3.0 | 13.0 | 0.00 | 0.04 | 0.02 | 64 | 1014.8 |
| 20260830203825 | 88 | 77 | 2.0 | 11.0 | 0.00 | 0.04 | 0.02 | 64 | 1014.9 |
| 20260830203332 | 88 | 78 | 3.0 | 11.0 | 0.00 | 0.04 | 0.02 | 65 | 1015.1 |
| 20260830202812 | 88 | 90 | 3.0 | 10.0 | 0.00 | 0.04 | 0.02 | 65 | 1015.1 |
| 20260830202314 | 88 | 111 | 4.0 | 10.0 | 0.00 | 0.04 | 0.02 | 65 | 1015.1 |
| 20260830201815 | 88 | 81 | 4.0 | 12.0 | 0.00 | 0.04 | 0.02 | 65 | 1015.1 |
| 20260830201323 | 88 | 103 | 4.0 | 12.0 | 0.00 | 0.04 | 0.02 | 65 | 1015.2 |
| 20260830200823 | 88 | 157 | 4.0 | 10.0 | 0.00 | 0.04 | 0.02 | 64 | 1015.3 |
| 20260830200331 | 89 | 65 | 4.0 | 10.0 | 0.00 | 0.04 | 0.02 | 64 | 1015.5 |
| 20260830195812 | 89 | 58 | 4.0 | 11.0 | 0.00 | 0.04 | 0.02 | 62 | 1015.5 |
| 20260830195313 | 90 | 107 | 4.0 | 11.0 | 0.00 | 0.04 | 0.02 | 61 | 1015.5 |
| 20260830194840 | 90 | 142 | 3.0 | 11.0 | 0.00 | 0.04 | 0.02 | 59 | 1015.6 |
| 20260830194320 | 91 | 39 | 3.0 | 11.0 | 0.00 | 0.04 | 0.02 | 59 | 1015.6 |
| 20260830193820 | 91 | 44 | 4.0 | 10.0 | 0.00 | 0.04 | 0.02 | 58 | 1015.7 |
| 20260830193327 | 91 | 178 | 4.0 | 13.0 | 0.00 | 0.04 | 0.02 | 58 | 1015.8 |
| 20260830192827 | 91 | 211 | 5.0 | 13.0 | 0.00 | 0.04 | 0.02 | 58 | 1016.0 |
| 20260830192354 | 91 | 82 | 3.0 | 10.0 | 0.00 | 0.04 | 0.02 | 60 | 1016.0 |
| 20260830191901 | 91 | 175 | 3.0 | 13.0 | 0.00 | 0.05 | 0.02 | 62 | 1016.0 |
| 20260830191317 | 91 | 96 | 3.0 | 13.0 | 0.00 | 0.05 | 0.02 | 61 | 1016.1 |
| 20260830190818 | 91 | 77 | 3.0 | 11.0 | 0.00 | 0.05 | 0.02 | 59 | 1016.2 |
| 20260830185835 | 91 | 89 | 2.0 | 7.0 | 0.01 | 0.05 | 0.02 | 61 | 1016.0 |
| 20260830185316 | 91 | 121 | 2.0 | 8.0 | 0.01 | 0.05 | 0.02 | 62 | 1016.0 |
| 20260830184824 | 90 | 9 | 2.0 | 12.0 | 0.01 | 0.05 | 0.02 | 60 | 1016.1 |
| 20260830184312 | 90 | 76 | 4.0 | 12.0 | 0.01 | 0.05 | 0.02 | 60 | 1016.1 |
| 20260830183823 | 90 | 306 | 2.0 | 11.0 | 0.01 | 0.05 | 0.02 | 62 | 1016.1 |
| 20260830183331 | 90 | 73 | 3.0 | 11.0 | 0.01 | 0.05 | 0.02 | 63 | 1016.2 |
| 20260830182820 | 89 | 335 | 2.0 | 8.0 | 0.01 | 0.05 | 0.02 | 63 | 1016.3 |
| 20260830181825 | 88 | 41 | 2.0 | 10.0 | 0.01 | 0.05 | 0.02 | 65 | 1016.4 |
| 20260830181314 | 88 | 103 | 3.0 | 11.0 | 0.01 | 0.05 | 0.02 | 65 | 1016.5 |
| 20260830180843 | 88 | 86 | 1.0 | 9.0 | 0.01 | 0.05 | 0.02 | 68 | 1016.5 |
| 20260830180330 | 88 | 182 | 2.0 | 14.0 | 0.00 | 0.04 | 0.01 | 66 | 1016.6 |
| 20260830175818 | 89 | 93 | 3.0 | 14.0 | 0.00 | 0.04 | 0.01 | 65 | 1016.7 |
| 20260830175327 | 89 | 167 | 2.0 | 9.0 | 0.00 | 0.04 | 0.01 | 67 | 1016.6 |
| 20260830174836 | 89 | 148 | 3.0 | 10.0 | 0.00 | 0.04 | 0.01 | 65 | 1016.7 |
| 20260830174324 | 89 | 123 | 4.0 | 12.0 | 0.00 | 0.04 | 0.01 | 65 | 1016.7 |
| 20260830173853 | 89 | 82 | 4.0 | 12.0 | 0.00 | 0.04 | 0.01 | 65 | 1016.9 |
| 20260830173320 | 88 | 104 | 3.0 | 10.0 | 0.00 | 0.04 | 0.01 | 65 | 1016.9 |
| 20260830172813 | 88 | 34 | 2.0 | 8.0 | 0.00 | 0.04 | 0.01 | 69 | 1016.9 |
| 20260830172323 | 87 | 89 | 1.0 | 8.0 | 0.00 | 0.04 | 0.01 | 69 | 1017.0 |
| 20260830171831 | 86 | 87 | 3.0 | 8.0 | 0.00 | 0.04 | 0.01 | 71 | 1017.1 |
| 20260830171340 | 86 | 62 | 0.0 | 7.0 | 0.00 | 0.04 | 0.01 | 73 | 1017.2 |
| 20260830170827 | 85 | 64 | 2.0 | 8.0 | 0.00 | 0.04 | 0.01 | 75 | 1017.1 |
| 20260830170316 | 84 | 103 | 1.0 | 8.0 | 0.00 | 0.04 | 0.01 | 79 | 1017.1 |
| 20260830165824 | 83 | 62 | 2.0 | 6.0 | 0.00 | 0.04 | 0.01 | 78 | 1017.1 |
| 20260830165332 | 83 | 40 | 1.0 | 4.0 | 0.00 | 0.04 | 0.01 | 79 | 1017.2 |
| 20260830164820 | 83 | 287 | 0.0 | 2.0 | 0.00 | 0.04 | 0.01 | 79 | 1017.2 |
| 20260830164328 | 84 | 44 | 0.0 | 4.0 | 0.00 | 0.04 | 0.01 | 78 | 1017.2 |
| 20260830163821 | 85 | 316 | 1.0 | 9.0 | 0.00 | 0.04 | 0.01 | 75 | 1017.2 |
| 20260830163329 | 86 | 130 | 2.0 | 9.0 | 0.00 | 0.04 | 0.01 | 72 | 1017.4 |
| 20260830162837 | 86 | 55 | 1.0 | 5.0 | 0.00 | 0.04 | 0.01 | 71 | 1017.4 |
| 20260830162325 | 87 | 85 | 2.0 | 5.0 | 0.00 | 0.04 | 0.01 | 70 | 1017.3 |
| 20260830161814 | 87 | 31 | 1.0 | 6.0 | 0.00 | 0.05 | 0.01 | 70 | 1017.3 |
| 20260830161323 | 88 | 59 | 2.0 | 6.0 | 0.00 | 0.05 | 0.01 | 69 | 1017.3 |
| 20260830160832 | 89 | 293 | 2.0 | 6.0 | 0.00 | 0.05 | 0.01 | 68 | 1017.3 |
| 20260830160320 | 89 | 65 | 1.0 | 7.0 | 0.00 | 0.05 | 0.01 | 69 | 1017.2 |
| 20260830155848 | 89 | 34 | 2.0 | 7.0 | 0.00 | 0.05 | 0.01 | 69 | 1017.1 |
| 20260830155315 | 88 | 344 | 2.0 | 5.0 | 0.00 | 0.05 | 0.01 | 71 | 1017.2 |
| 20260830154828 | 87 | 76 | 2.0 | 5.0 | 0.00 | 0.05 | 0.01 | 72 | 1017.1 |
| 20260830154317 | 87 | 348 | 1.0 | 8.0 | 0.00 | 0.05 | 0.01 | 71 | 1017.1 |
| 20260830153826 | 87 | 53 | 3.0 | 8.0 | 0.00 | 0.05 | 0.01 | 72 | 1017.0 |
| 20260830153414 | 87 | 63 | 2.0 | 8.0 | 0.00 | 0.05 | 0.01 | 71 | 1017.1 |
| 20260830152822 | 88 | 341 | 2.0 | 6.0 | 0.00 | 0.05 | 0.01 | 71 | 1017.2 |
| 20260830152331 | 88 | 32 | 2.0 | 8.0 | 0.00 | 0.05 | 0.01 | 70 | 1017.2 |
| 20260830151820 | 89 | 44 | 1.0 | 8.0 | 0.00 | 0.05 | 0.01 | 70 | 1017.2 |
| 20260830151329 | 89 | 61 | 1.0 | 5.0 | 0.00 | 0.05 | 0.01 | 71 | 1017.1 |
| 20260830150818 | 89 | 98 | 1.0 | 5.0 | 0.00 | 0.05 | 0.01 | 70 | 1017.0 |
| 20260830150326 | 88 | 94 | 2.0 | 5.0 | 0.00 | 0.05 | 0.01 | 70 | 1017.1 |
| 20260830145855 | 88 | 102 | 0.0 | 7.0 | 0.00 | 0.05 | 0.01 | 72 | 1017.0 |
| 20260830145402 | 88 | 118 | 1.0 | 7.0 | 0.00 | 0.05 | 0.01 | 72 | 1016.9 |
| 20260830144826 | 88 | 109 | 2.0 | 6.0 | 0.00 | 0.05 | 0.01 | 71 | 1016.9 |
| 20260830144321 | 87 | 55 | 1.0 | 6.0 | 0.00 | 0.05 | 0.01 | 72 | 1016.9 |
| 20260830143817 | 87 | 12 | 2.0 | 4.0 | 0.00 | 0.05 | 0.01 | 72 | 1016.9 |
| 20260830143333 | 87 | 20 | 1.0 | 6.0 | 0.00 | 0.05 | 0.01 | 73 | 1016.8 |
| 20260830142829 | 87 | 345 | 2.0 | 6.0 | 0.00 | 0.05 | 0.01 | 73 | 1016.8 |
| 20260830142322 | 87 | 56 | 1.0 | 7.0 | 0.00 | 0.05 | 0.01 | 73 | 1016.7 |
| 20260830141820 | 87 | 74 | 0.0 | 4.0 | 0.00 | 0.05 | 0.01 | 73 | 1016.7 |
| 20260830141314 | 87 | 71 | 1.0 | 9.0 | 0.00 | 0.05 | 0.01 | 73 | 1016.7 |
| 20260830140832 | 86 | 71 | 1.0 | 9.0 | 0.00 | 0.05 | 0.01 | 73 | 1016.8 |
| 20260830140328 | 86 | 70 | 1.0 | 5.0 | 0.00 | 0.05 | 0.01 | 73 | 1016.9 |
| 20260830135845 | 86 | 36 | 1.0 | 6.0 | 0.00 | 0.05 | 0.01 | 74 | 1016.8 |
| 20260830135316 | 86 | 360 | 1.0 | 4.0 | 0.00 | 0.05 | 0.01 | 75 | 1016.8 |
| 20260830134830 | 86 | 74 | 0.0 | 4.0 | 0.00 | 0.05 | 0.01 | 75 | 1016.8 |
| 20260830134324 | 86 | 30 | 0.0 | 6.0 | 0.00 | 0.05 | 0.01 | 75 | 1016.8 |
| 20260830133819 | 86 | 87 | 0.0 | 6.0 | 0.00 | 0.05 | 0.01 | 75 | 1016.8 |
| 20260830133333 | 86 | 63 | 1.0 | 3.0 | 0.00 | 0.05 | 0.01 | 75 | 1016.8 |
| 20260830132827 | 86 | 130 | 0.0 | 4.0 | 0.00 | 0.05 | 0.01 | 76 | 1016.7 |
| 20260830132322 | 85 | 44 | 1.0 | 4.0 | 0.00 | 0.05 | 0.01 | 76 | 1016.7 |
| 20260830131817 | 85 | 98 | 0.0 | 5.0 | 0.00 | 0.06 | 0.01 | 77 | 1016.7 |
| 20260830131333 | 85 | 82 | 1.0 | 5.0 | 0.00 | 0.06 | 0.01 | 77 | 1016.6 |
| 20260830130828 | 85 | 46 | 0.0 | 3.0 | 0.00 | 0.06 | 0.01 | 77 | 1016.5 |
| 20260830125818 | 84 | 5 | 0.0 | 2.0 | 0.00 | 0.06 | 0.01 | 79 | 1016.4 |
| 20260830125314 | 83 | 90 | 0.0 | 5.0 | 0.00 | 0.06 | 0.01 | 80 | 1016.4 |
| 20260830124828 | 83 | 90 | 1.0 | 5.0 | 0.00 | 0.06 | 0.01 | 81 | 1016.4 |
| 20260830124324 | 82 | 84 | 0.0 | 2.0 | 0.01 | 0.06 | 0.01 | 83 | 1016.3 |
| 20260830123820 | 82 | 89 | 0.0 | 2.0 | 0.01 | 0.06 | 0.01 | 83 | 1016.3 |
| 20260830123314 | 81 | 243 | 0.0 | 2.0 | 0.01 | 0.06 | 0.01 | 83 | 1016.2 |
| 20260830122831 | 81 | 53 | 0.0 | 3.0 | 0.01 | 0.06 | 0.01 | 83 | 1016.3 |
| 20260830122347 | 81 | 53 | 0.0 | 3.0 | 0.01 | 0.06 | 0.01 | 83 | 1016.2 |
| 20260830121821 | 81 | 52 | 0.0 | 5.0 | 0.01 | 0.06 | 0.01 | 83 | 1016.2 |
| 20260830121333 | 81 | 9 | 0.0 | 5.0 | 0.01 | 0.06 | 0.01 | 83 | 1016.2 |
| 20260830120847 | 81 | 58 | 0.0 | 3.0 | 0.01 | 0.06 | 0.01 | 83 | 1016.3 |
| 20260830120322 | 81 | 33 | 0.0 | 2.0 | 0.01 | 0.06 | 0.01 | 83 | 1016.2 |
| 20260830115818 | 81 | 360 | 0.0 | 3.0 | 0.01 | 0.06 | 0.01 | 82 | 1016.2 |
| 20260830115314 | 81 | 5 | 0.0 | 3.0 | 0.01 | 0.06 | 0.01 | 82 | 1016.1 |
| 20260830114829 | 81 | 346 | 0.0 | 0.0 | 0.01 | 0.06 | 0.01 | 82 | 1016.1 |
| 20260830114326 | 81 | 90 | 0.0 | 3.0 | 0.00 | 0.05 | 0.00 | 82 | 1016.1 |
| 20260830113820 | 81 | 52 | 0.0 | 3.0 | 0.00 | 0.05 | 0.00 | 82 | 1015.9 |
| 20260830113317 | 81 | 22 | 0.0 | 2.0 | 0.00 | 0.05 | 0.00 | 82 | 1015.8 |
| 20260830112833 | 81 | 271 | 0.0 | 3.0 | 0.00 | 0.05 | 0.00 | 82 | 1015.8 |
| 20260830112328 | 81 | 341 | 0.0 | 5.0 | 0.00 | 0.05 | 0.00 | 82 | 1015.7 |
| 20260830111823 | 81 | 360 | 1.0 | 4.0 | 0.00 | 0.05 | 0.00 | 81 | 1015.6 |
| 20260830111319 | 80 | 84 | 0.0 | 2.0 | 0.00 | 0.05 | 0.00 | 81 | 1015.6 |
| 20260830110814 | 80 | 84 | 0.0 | 2.0 | 0.00 | 0.05 | 0.00 | 81 | 1015.4 |
| 20260830110328 | 80 | 84 | 0.0 | 1.0 | 0.00 | 0.05 | 0.00 | 80 | 1015.4 |
| 20260830105822 | 80 | 84 | 0.0 | 0.0 | 0.00 | 0.05 | 0.00 | 80 | 1015.3 |
| 20260830105337 | 80 | 84 | 0.0 | 0.0 | 0.00 | 0.05 | 0.00 | 80 | 1015.3 |
| 20260830104850 | 80 | 84 | 0.0 | 0.0 | 0.00 | 0.05 | 0.00 | 79 | 1015.3 |
| 20260830104325 | 80 | 84 | 0.0 | 0.0 | 0.00 | 0.05 | 0.00 | 79 | 1015.3 |
| 20260830103821 | 80 | 84 | 0.0 | 0.0 | 0.00 | 0.05 | 0.00 | 79 | 1015.2 |
| 20260830103317 | 80 | 84 | 0.0 | 0.0 | 0.00 | 0.05 | 0.00 | 79 | 1015.2 |
| 20260830102830 | 80 | 84 | 0.0 | 0.0 | 0.00 | 0.05 | 0.00 | 79 | 1015.1 |
| 20260830102325 | 80 | 84 | 0.0 | 0.0 | 0.00 | 0.05 | 0.00 | 79 | 1014.9 |
| 20260830101821 | 80 | 84 | 0.0 | 0.0 | 0.00 | 0.06 | 0.00 | 79 | 1015.0 |
| 20260830101316 | 80 | 84 | 0.0 | 0.0 | 0.00 | 0.06 | 0.00 | 79 | 1015.0 |
| 20260830100831 | 80 | 84 | 0.0 | 0.0 | 0.00 | 0.06 | 0.00 | 79 | 1015.0 |
| 20260830100325 | 81 | 84 | 0.0 | 0.0 | 0.00 | 0.06 | 0.00 | 78 | 1014.9 |
| 20260830095822 | 81 | 84 | 0.0 | 0.0 | 0.00 | 0.06 | 0.00 | 78 | 1015.0 |
| 20260830095316 | 81 | 84 | 0.0 | 2.0 | 0.00 | 0.06 | 0.00 | 78 | 1014.9 |
| 20260830094900 | 81 | 84 | 0.0 | 3.0 | 0.00 | 0.06 | 0.00 | 78 | 1015.0 |
| 20260830094356 | 80 | 84 | 0.0 | 3.0 | 0.00 | 0.06 | 0.00 | 79 | 1015.0 |
| 20260830093850 | 80 | 84 | 0.0 | 0.0 | 0.00 | 0.06 | 0.00 | 79 | 1015.0 |
| 20260830093324 | 80 | 84 | 0.0 | 0.0 | 0.00 | 0.06 | 0.00 | 79 | 1015.1 |
| 20260830092819 | 81 | 84 | 0.0 | 0.0 | 0.00 | 0.06 | 0.00 | 78 | 1015.1 |
| 20260830092314 | 81 | 84 | 0.0 | 0.0 | 0.00 | 0.06 | 0.00 | 78 | 1015.0 |
| 20260830091826 | 81 | 84 | 0.0 | 0.0 | 0.00 | 0.06 | 0.00 | 78 | 1014.9 |
| 20260830091342 | 81 | 84 | 0.0 | 0.0 | 0.00 | 0.06 | 0.00 | 78 | 1014.9 |
| 20260830090815 | 81 | 84 | 0.0 | 0.0 | 0.00 | 0.06 | 0.00 | 78 | 1014.9 |
| 20260830090331 | 81 | 84 | 0.0 | 0.0 | 0.00 | 0.06 | 0.00 | 78 | 1014.8 |
| 20260830085825 | 81 | 84 | 0.0 | 0.0 | 0.00 | 0.06 | 0.00 | 78 | 1014.8 |
| 20260830085341 | 81 | 84 | 0.0 | 0.0 | 0.00 | 0.06 | 0.00 | 78 | 1014.8 |
| 20260830084834 | 81 | 84 | 0.0 | 0.0 | 0.00 | 0.06 | 0.00 | 78 | 1014.9 |
| 20260830084331 | 81 | 84 | 0.0 | 0.0 | 0.00 | 0.06 | 0.00 | 78 | 1014.9 |
| 20260830083846 | 81 | 84 | 0.0 | 0.0 | 0.00 | 0.06 | 0.00 | 78 | 1014.9 |
| 20260830083321 | 81 | 84 | 0.0 | 0.0 | 0.00 | 0.06 | 0.00 | 78 | 1014.9 |
| 20260830082816 | 81 | 84 | 0.0 | 0.0 | 0.00 | 0.06 | 0.00 | 78 | 1014.9 |
| 20260830082333 | 81 | 84 | 0.0 | 0.0 | 0.00 | 0.06 | 0.00 | 78 | 1014.9 |
| 20260830081849 | 81 | 84 | 0.0 | 0.0 | 0.00 | 0.06 | 0.00 | 78 | 1014.9 |
| 20260830081323 | 81 | 84 | 0.0 | 0.0 | 0.00 | 0.06 | 0.00 | 78 | 1014.9 |
| 20260830080839 | 82 | 84 | 0.0 | 0.0 | 0.00 | 0.06 | 0.00 | 77 | 1014.9 |
| 20260830080333 | 82 | 84 | 0.0 | 0.0 | 0.00 | 0.06 | 0.00 | 77 | 1014.9 |
| 20260830075849 | 82 | 84 | 0.0 | 0.0 | 0.00 | 0.06 | 0.00 | 77 | 1014.8 |
| 20260830075324 | 82 | 85 | 0.0 | 0.0 | 0.00 | 0.06 | 0.00 | 77 | 1014.9 |
| 20260830074818 | 82 | 85 | 0.0 | 0.0 | 0.00 | 0.06 | 0.00 | 77 | 1015.0 |
| 20260830074332 | 82 | 85 | 0.0 | 0.0 | 0.00 | 0.06 | 0.00 | 77 | 1015.1 |
| 20260830073847 | 82 | 85 | 0.0 | 0.0 | 0.00 | 0.06 | 0.00 | 77 | 1015.2 |
| 20260830073336 | 82 | 85 | 0.0 | 0.0 | 0.00 | 0.06 | 0.00 | 77 | 1015.2 |
| 20260830072849 | 82 | 85 | 0.0 | 1.0 | 0.00 | 0.06 | 0.00 | 76 | 1015.1 |
| 20260830072324 | 82 | 85 | 0.0 | 1.0 | 0.00 | 0.06 | 0.00 | 76 | 1015.2 |
| 20260830071817 | 82 | 85 | 0.0 | 3.0 | 0.00 | 0.07 | 0.06 | 76 | 1015.2 |
| 20260830071331 | 82 | 85 | 1.0 | 3.0 | 0.00 | 0.07 | 0.06 | 76 | 1015.2 |
| 20260830070827 | 82 | 85 | 0.0 | 2.0 | 0.00 | 0.07 | 0.06 | 76 | 1015.3 |
| 20260830070324 | 82 | 85 | 0.0 | 1.0 | 0.00 | 0.07 | 0.06 | 76 | 1015.4 |
| 20260830065819 | 83 | 85 | 0.0 | 1.0 | 0.00 | 0.07 | 0.06 | 76 | 1015.5 |
| 20260830065314 | 83 | 85 | 0.0 | 3.0 | 0.00 | 0.07 | 0.06 | 76 | 1015.7 |
| 20260830064830 | 83 | 85 | 0.0 | 3.0 | 0.00 | 0.07 | 0.06 | 75 | 1015.6 |
| 20260830064326 | 83 | 85 | 0.0 | 2.0 | 0.00 | 0.07 | 0.06 | 75 | 1015.7 |
| 20260830063821 | 83 | 85 | 0.0 | 3.0 | 0.00 | 0.07 | 0.06 | 75 | 1015.7 |
| 20260830063317 | 83 | 70 | 1.0 | 3.0 | 0.00 | 0.07 | 0.06 | 75 | 1015.8 |
| 20260830062832 | 83 | 70 | 1.0 | 3.0 | 0.00 | 0.07 | 0.06 | 75 | 1015.9 |
| 20260830062328 | 83 | 74 | 0.0 | 2.0 | 0.00 | 0.07 | 0.06 | 75 | 1015.9 |
| 20260830061825 | 83 | 74 | 0.0 | 3.0 | 0.00 | 0.07 | 0.06 | 75 | 1015.9 |
| 20260830061343 | 83 | 74 | 1.0 | 5.0 | 0.01 | 0.07 | 0.06 | 75 | 1015.9 |
| 20260830060816 | 83 | 74 | 0.0 | 5.0 | 0.01 | 0.07 | 0.06 | 75 | 1015.9 |
| 20260830060331 | 83 | 78 | 0.0 | 4.0 | 0.01 | 0.07 | 0.06 | 74 | 1016.0 |
| 20260830055807 | 83 | 78 | 0.0 | 5.0 | 0.01 | 0.07 | 0.06 | 74 | 1016.0 |
| 20260830055323 | 83 | 67 | 1.0 | 3.0 | 0.01 | 0.07 | 0.06 | 74 | 1016.2 |
| 20260830054819 | 83 | 136 | 1.0 | 3.0 | 0.01 | 0.07 | 0.06 | 74 | 1016.2 |
| 20260830054315 | 83 | 79 | 1.0 | 2.0 | 0.01 | 0.07 | 0.06 | 74 | 1016.3 |
| 20260830053832 | 83 | 153 | 0.0 | 2.0 | 0.01 | 0.07 | 0.06 | 74 | 1016.4 |
| 20260830053310 | 83 | 109 | 0.0 | 2.0 | 0.01 | 0.07 | 0.06 | 74 | 1016.4 |
| 20260830052824 | 83 | 101 | 0.0 | 4.0 | 0.01 | 0.07 | 0.06 | 74 | 1016.4 |
| 20260830052321 | 83 | 101 | 1.0 | 4.0 | 0.01 | 0.07 | 0.06 | 74 | 1016.4 |
| 20260830051816 | 83 | 93 | 1.0 | 3.0 | 0.01 | 0.07 | 0.06 | 74 | 1016.5 |
| 20260830051311 | 83 | 165 | 1.0 | 4.0 | 0.00 | 0.06 | 0.05 | 74 | 1016.5 |
| 20260830050807 | 83 | 81 | 1.0 | 5.0 | 0.00 | 0.06 | 0.05 | 74 | 1016.5 |
| 20260830050305 | 83 | 65 | 1.0 | 5.0 | 0.00 | 0.06 | 0.05 | 74 | 1016.5 |
| 20260830045822 | 83 | 96 | 0.0 | 5.0 | 0.00 | 0.06 | 0.05 | 74 | 1016.6 |
| 20260830045318 | 84 | 124 | 1.0 | 5.0 | 0.00 | 0.06 | 0.05 | 74 | 1016.5 |
| 20260830044813 | 84 | 72 | 1.0 | 5.0 | 0.00 | 0.06 | 0.05 | 73 | 1016.5 |
| 20260830044308 | 84 | 130 | 2.0 | 5.0 | 0.00 | 0.06 | 0.05 | 73 | 1016.5 |
| 20260830043823 | 84 | 150 | 1.0 | 4.0 | 0.00 | 0.06 | 0.05 | 73 | 1016.6 |
| 20260830043318 | 84 | 195 | 0.0 | 5.0 | 0.00 | 0.06 | 0.05 | 73 | 1016.6 |
| 20260830042835 | 84 | 86 | 1.0 | 5.0 | 0.00 | 0.06 | 0.05 | 73 | 1016.6 |
| 20260830042328 | 84 | 153 | 0.0 | 4.0 | 0.00 | 0.06 | 0.05 | 72 | 1016.6 |
| 20260830041819 | 84 | 30 | 2.0 | 5.0 | 0.00 | 0.07 | 0.05 | 72 | 1016.7 |
| 20260830041337 | 84 | 46 | 0.0 | 5.0 | 0.00 | 0.07 | 0.05 | 72 | 1016.7 |
| 20260830040809 | 84 | 98 | 1.0 | 5.0 | 0.00 | 0.07 | 0.05 | 71 | 1016.7 |
| 20260830040324 | 84 | 108 | 1.0 | 4.0 | 0.00 | 0.07 | 0.05 | 71 | 1016.7 |
| 20260830035840 | 84 | 165 | 1.0 | 5.0 | 0.00 | 0.07 | 0.05 | 71 | 1016.7 |
| 20260830035315 | 84 | 150 | 2.0 | 7.0 | 0.00 | 0.07 | 0.05 | 71 | 1016.7 |
| 20260830034811 | 84 | 77 | 3.0 | 7.0 | 0.00 | 0.07 | 0.05 | 71 | 1016.6 |
| 20260830034307 | 84 | 141 | 2.0 | 5.0 | 0.00 | 0.07 | 0.05 | 72 | 1016.5 |